Regional Weather Roundup
Issued by NWS Cleveland, OH

Home | Current Version | Previous Version | Graphics & Text | Print | Product List | Glossary On
Versions: 1 2 3 4 5 6 7 8 9 10 11 12 13 14 15 16 17 18 19 20 21 22 23 24 25 26 27 28 29 30 31 32 33 34 35 36 37 38 39 40 41 42 43 44 45 46 47 48 49 50
000
ASUS41 KCLE 220910
RWRCLE
OHIO REGIONAL WEATHER ROUNDUP
NATIONAL WEATHER SERVICE CLEVELAND, OH
500 AM EDT TUE MAY 22 2018

NOTE: "FAIR" INDICATES FEW OR NO CLOUDS BELOW 12,000 FEET WITH NO
SIGNIFICANT WEATHER AND/OR OBSTRUCTIONS TO VISIBILITY.

OHZ001>008-015>018-024>027-034-035-043-044-221000-
   NORTHWEST OHIO

CITY           SKY/WX    TMP DP  RH WIND       PRES   REMARKS
DEFIANCE       MOCLDY    55  53  93 CALM      29.99S FOG
FINDLAY        MOCLDY    64  63  96 S5        29.98S
TOLEDO EXPRESS CLOUDY    56  56 100 CALM      29.98S
TOLEDO EXEC    CLOUDY    57  53  86 CALM      29.99S
LIMA           CLOUDY    65  64  97 S8        30.00S
$$

OHZ009>014-019>023-028>033-038-089-221000-
   NORTHEAST OHIO

CITY           SKY/WX    TMP DP  RH WIND       PRES   REMARKS
CLE-HOPKINS    CLOUDY    66  63  90 S9        30.00S
CLE-LAKEFRONT  CLOUDY    66  62  87 S13       29.96F
CUY CO. ARPT   NOT AVBL
LORAIN-ELYRIA  CLOUDY    64  59  83 S12       29.99S
ASHTABULA      CLOUDY    64  63  96 S7        30.00F
AKRON-CANTON   CLOUDY    65  62  90 S6        30.02S FOG
WOOSTER        MOCLDY    63  62  97 S7        30.02F
MANSFIELD      CLOUDY    64  64 100 S8        30.02R
YOUNGSTOWN     LGT RAIN  64  63  96 S7        30.02F
$$

OHZ042-051>053-060>062-070>072-077>081-221000-
  SOUTHWEST OHIO

CITY           SKY/WX    TMP DP  RH WIND       PRES   REMARKS
CINC-COVINGTON CLOUDY    67  66  97 S5        30.02F
CINC-LUNKEN    CLOUDY    68  68 100 CALM      30.03S
HAMILTON       CLOUDY    68  68 100 CALM      30.03S
DAYTON         CLOUDY    66  66 100 SW8       30.03S
WRIGHT-PAT AFB CLOUDY    66  65  95 S3        30.02R
DAYTON GENERAL CLOUDY    68  65  90 S7        30.02R
WILMINGTON     CLOUDY    66  66 100 S8        30.03R
$$

OHZ036-037-039>041-045>050-054>059-063>069-073>076-082>088-221000-
  CENTRAL AND SOUTHEAST OHIO

CITY           SKY/WX    TMP DP  RH WIND       PRES   REMARKS
COLUMBUS       LGT RAIN  66  64  93 SE9       30.01F
OSU AIRPORT    CLOUDY    66  65  96 S5        30.02S
BOLTON FIELD   CLOUDY    66  65  99 S7G17     30.02S
RICKENBACK AFB LGT RAIN  65  65 100 MISG      30.02F
NEWARK         MOCLDY    65  64  97 S7        30.03S
MARION         CLOUDY    66  64  93 S9        30.02R
LANCASTER      RAIN      66  65  96 SE5       30.04F
ZANESVILLE     CLOUDY    65  63  93 SW3       30.04S
NEW PHILLY     NOT AVBL
$$




USA.gov is the U.S. government's official web portal to all federal, state and local government web resources and services.